Wetbulb
31.07 30.44 30.17 29.88 29.71 29.70 29.84 30.01 30.47 30.96 31.08 30.92 31.14 31.27 31.46 31.69 32.58 32.86 32.61 31.82 30.95 30.40 30.11 29.67 29.23 29.22 27.94 27.90 28.13 27.26 26.76 27.46 26.10 24.91 27.08 26.70 26.52 24.45 24.33 25.77 25.86 25.59 24.37
31.09 29.72 29.38 28.66 28.12 27.93 27.89 28.29 29.19 29.48 30.05 29.89 30.02 30.16 30.30 30.87 31.51 31.50 30.92 29.78 29.05 28.22 28.26 28.06 27.13 28.12 25.95 26.27 26.28 25.83 25.55 25.91 25.98 24.08 24.63 25.17 24.99 23.14 22.39 22.68 23.84 24.62 23.10
29.99 28.88 28.13 27.41 26.71 26.45 26.58 27.09 28.01 28.52 28.62 29.04 29.50 29.14 29.34 29.82 29.89 29.98 29.70 28.99 27.86 28.11 27.38 25.74 25.64 25.97 24.94 24.51 24.11 24.06 24.84 25.78 25.10 25.05 22.88 23.93 23.15 22.56 21.28 21.96 21.66 21.67 23.10
29.58 28.06 27.49 26.88 26.29 25.78 25.95 26.44 26.96 27.46 27.46 27.88 27.99 28.30 28.63 28.85 29.31 29.16 28.62 27.67 27.42 26.97 26.86 25.96 25.32 25.03 24.70 23.89 24.36 23.92 24.63 24.31 23.85 22.83 22.52 21.03 21.32 21.60 19.84 17.60 17.34 19.28 18.80
28.83 27.43 27.72 27.09 25.75 25.24 25.49 25.96 26.26 26.71 27.21 27.37 27.11 26.97 27.04 27.87 28.72 27.69 28.01 26.54 25.47 24.03 24.63 24.88 25.41 25.89 26.82 25.93 23.54 22.36 22.86 22.40 21.91 21.11 19.14 19.08 18.15 17.71 16.01 17.18 16.51 16.69 17.34
28.99 28.73 27.89 26.13 25.67 25.33 25.20 25.35 25.41 25.97 26.48 26.57 26.24 26.06 25.65 27.83 31.06 30.59 27.96 25.77 24.84 23.31 22.36 22.91 22.99 23.84 26.43 27.11 26.95 26.84 24.29 21.11 18.80 18.99 17.57 16.48 15.93 16.18 16.20 15.74 14.54 12.44 11.88
29.05 28.74 26.53 26.08 25.12 24.78 24.85 24.44 24.53 24.44 25.17 24.93 24.96 25.14 25.50 27.15 31.55 30.56 28.40 25.51 24.64 23.26 22.14 21.89 22.39 23.13 22.36 23.13 24.75 25.36 23.68 23.65 21.10 17.79 15.86 14.71 14.87 15.17 15.57 13.70 12.30 11.57 11.71
27.91 27.79 26.36 25.86 25.05 24.24 23.76 23.67 24.00 24.05 23.85 23.70 23.94 24.74 25.35 27.40 30.83 29.90 27.04 24.17 23.00 22.99 22.08 21.35 21.68 21.95 22.07 20.98 20.18 19.90 18.57 18.06 17.17 17.40 16.40 16.38 16.45 16.60 14.72 12.68 10.57 8.18 7.72
26.83 26.63 25.63 25.17 24.21 22.95 22.62 22.26 22.52 22.89 22.92 23.24 24.47 24.19 24.70 26.00 29.99 28.84 25.42 23.10 22.10 21.12 21.35 20.96 21.16 21.46 23.52 22.23 19.61 18.76 17.10 15.33 17.41 18.05 18.65 18.59 17.70 17.82 15.53 8.50 -0.92 -3.15 -2.96
26.00 25.82 24.89 24.48 23.96 22.60 22.76 22.03 22.74 23.50 23.76 24.17 24.06 24.69 24.40 25.27 29.17 28.41 24.98 23.01 20.85 20.01 20.17 20.47 22.07 21.54 22.44 20.84 18.45 17.48 14.94 12.08 10.94 9.49 10.23 12.02 12.21 12.31 12.99 10.29 7.81 -6.33 -4.22
25.31 24.19 22.83 23.12 23.25 22.92 22.19 22.11 22.53 22.98 23.26 23.24 23.23 23.34 24.15 24.54 25.97 28.35 26.40 22.79 21.60 19.29 18.54 18.36 20.60 22.72 21.67 20.02 19.00 16.72 14.36 10.97 8.67 5.91 6.38 6.96 7.04 6.95 7.00 7.36 7.76 5.92 1.20
22.82 22.46 21.70 21.37 23.11 22.55 22.06 21.22 22.16 22.19 22.19 21.71 21.10 20.64 20.55 22.74 25.08 26.90 26.67 24.43 23.58 19.70 17.57 17.39 18.68 21.70 20.30 18.58 17.41 17.12 13.94 8.31 4.72 3.02 3.76 3.44 3.57 3.14 4.04 4.60 5.47 5.16 5.34
21.36 22.18 20.81 21.85 22.03 21.75 21.50 20.39 21.49 22.47 21.35 20.15 19.24 19.06 17.73 20.33 23.28 26.43 25.63 24.17 23.23 19.24 17.57 17.37 19.99 20.44 18.40 16.38 15.85 13.50 8.30 5.87 3.48 1.99 1.77 1.96 2.47 2.82 3.18 2.26 2.75 1.87 2.03
17.84 19.47 20.04 20.31 20.07 21.28 22.48 22.17 21.68 21.02 19.80 19.68 18.83 17.80 17.23 17.68 19.29 20.74 22.20 22.32 21.57 17.94 17.93 16.15 16.78 14.27 12.03 9.85 8.87 7.25 6.17 4.57 3.55 1.81 0.40 0.26 1.09 0.04 -1.39 -0.37 -2.93 -2.83 -7.57
15.18 15.44 16.92 19.12 19.50 19.39 20.22 20.76 21.18 21.96 21.88 19.26 18.99 17.67 15.89 15.69 17.26 20.18 19.07 17.56 14.40 13.47 9.09 8.35 7.42 6.47 5.34 4.55 3.78 3.29 2.70 1.95 0.49 -0.76 -2.96 -3.94 -3.11 -2.81 -3.68 -3.39 -4.54 -10.31 -14.22
14.66 14.98 15.51 16.56 16.90 18.18 18.17 19.27 24.13 23.27 25.13 25.13 24.10 20.05 18.93 20.83 22.85 22.76 21.82 20.96 19.55 17.67 4.58 3.49 4.19 4.66 4.28 3.51 2.21 0.93 0.39 -1.28 -1.90 -3.30 -5.57 -5.51 -6.07 -7.30 -7.50 -8.14 -7.76 -15.37 -16.51
14.35 15.74 16.98 17.36 17.19 16.25 17.03 16.87 16.02 21.85 25.68 25.38 24.65 23.65 22.04 21.79 23.69 23.36 22.85 22.12 21.54 14.93 3.37 3.50 3.61 2.99 2.26 1.75 0.78 -0.59 -2.20 -2.49 -3.64 -6.25 -6.84 -9.28 -9.61 -11.53 -14.92 -15.14 -12.82 -11.75 -17.30
12.69 15.37 14.89 15.31 15.35 15.67 15.67 16.13 16.80 17.29 16.52 18.05 23.02 22.02 22.75 23.09 23.57 23.55 24.44 22.56 11.37 5.00 1.19 0.94 0.83 0.66 -0.12 -1.12 -1.94 -3.14 -3.90 -5.16 -7.13 -8.42 -10.32 -16.97 -22.38 -21.06 -22.71 -22.02 -18.07 -24.08 -25.03
11.09 12.58 13.21 13.42 13.86 14.34 14.47 14.68 14.79 14.77 11.98 10.25 16.48 16.36 17.16 22.68 22.13 22.14 21.77 7.60 3.88 0.77 -0.87 -2.00 -1.94 -2.74 -3.54 -4.36 -5.16 -6.72 -8.72 -11.37 -13.82 -19.73 -24.74 -25.86 -26.97 -28.10 -29.34 -25.34 -22.40 -18.29 -20.07
5.45 10.16 10.47 10.42 10.44 10.46 10.99 10.07 9.30 9.05 8.41 9.17 9.50 6.40 5.85 9.86 10.87 3.74 2.72 2.17 1.33 0.49 -1.65 -3.39 -5.01 -6.01 -7.23 -8.73 -11.40 -15.25 -19.99 -25.01 -24.47 -24.36 -24.75 -26.45 -26.89 -27.31 -25.94 -29.30 -29.10 -26.86 -27.75
3.91 4.52 7.81 7.70 7.86 8.18 8.37 8.40 8.37 8.02 7.21 6.16 5.53 5.17 8.78 5.89 4.26 3.17 0.34 -0.85 -1.37 -2.56 -3.76 -5.15 -6.92 -9.58 -12.40 -15.95 -21.05 -23.76 -23.01 -20.49 -23.65 -26.47 -28.95 -27.59 -32.22 -33.15 -29.44 -24.53 -27.06 -28.27 -24.90
3.96 3.70 5.16 5.13 5.64 5.74 5.53 5.96 5.71 5.43 4.73 3.65 1.52 3.98 14.33 1.90 2.20 1.50 0.22 -1.42 -3.59 -5.07 -7.46 -9.98 -13.37 -15.59 -16.19 -18.16 -19.87 -22.30 -22.21 -22.03 -26.39 -26.16 -27.11 -28.66 -31.41 -33.20 -33.00 -30.00 -27.70 -26.77 -27.15
1.97 1.59 2.68 3.53 3.80 4.24 3.49 3.38 3.27 3.18 2.55 2.33 1.41 0.92 0.14 0.35 -0.11 -1.32 -2.95 -6.50 -11.08 -14.14 -16.62 -17.87 -17.67 -20.47 -22.73 -23.49 -23.03 -20.79 -20.82 -19.50 -19.43 -23.94 -25.89 -29.44 -30.29 -29.14 -31.21 -28.38 -29.44 -30.94 -29.20
1.23 1.44 0.68 0.36 0.61 1.77 1.88 1.17 0.95 0.97 0.30 -0.81 -2.19 -3.44 -4.40 -7.00 -8.88 -10.16 -12.83 -15.71 -18.02 -22.06 -23.47 -22.10 -21.26 -21.84 -24.08 -25.10 -25.51 -23.71 -21.45 -19.92 -26.21 -23.72 -24.50 -25.77 -25.43 -26.48 -30.43 -30.43 -26.78 -24.17 -21.57
0.42 0.49 0.34 0.29 -0.81 -1.13 -2.43 -4.05 -6.44 -10.56 -11.57 -11.56 -11.52 -11.44 -16.10 -17.53 -19.36 -21.26 -21.50 -23.09 -24.59 -25.87 -22.58 -23.64 -23.90 -22.12 -20.71 -20.95 -21.28 -23.83 -23.41 -12.90 -16.05 -22.35 -25.85 -27.67 -26.38 -28.62 -31.08 -27.78 -22.44 -22.69 -21.28
-3.13 -8.02 -10.72 -10.20 -9.88 -11.23 -11.26 -11.44 -13.56 -13.03 -12.53 -13.13 -14.97 -18.97 -19.51 -19.66 -19.73 -21.96 -22.92 -25.97 -25.21 -23.26 -23.06 -23.21 -22.67 -21.16 -21.72 -20.94 -20.64 -17.80 -17.14 -10.92 -16.67 -16.11 -22.87 -23.80 -24.21 -22.67 -22.98 -22.91 -23.45 -20.27 -19.06
MSLP
1017.33 1017.54 1017.74 1017.89 1017.95 1017.97 1018.01 1018.01 1018.11 1018.19 1018.33 1018.47 1018.44 1018.49 1018.57 1018.77 1018.89 1019.00 1019.11 1019.28 1019.68 1019.93 1020.31 1020.49 1020.76 1020.95 1021.15 1021.25 1021.39 1021.47 1021.52 1021.65 1022.49 1023.69 1023.86 1024.15 1024.46 1024.70 1024.56 1024.40 1024.07 1023.70 1023.59
1016.86 1017.21 1017.41 1017.63 1017.88 1018.03 1017.94 1017.82 1017.82 1017.81 1017.91 1017.99 1018.21 1018.42 1018.51 1018.69 1018.80 1019.05 1019.27 1019.68 1019.96 1020.36 1020.68 1020.95 1021.15 1021.37 1021.70 1021.88 1022.01 1022.25 1022.23 1022.30 1022.47 1023.55 1024.21 1024.35 1024.69 1024.93 1024.80 1024.72 1024.28 1023.96 1023.80
1016.59 1016.81 1017.05 1017.30 1017.55 1017.72 1017.84 1017.92 1018.08 1018.19 1018.28 1018.34 1018.38 1018.46 1018.59 1018.62 1018.75 1019.09 1019.38 1019.71 1020.10 1020.57 1020.94 1021.31 1021.67 1021.82 1022.21 1022.58 1022.80 1022.90 1022.91 1022.89 1023.20 1023.76 1024.60 1024.77 1024.99 1025.07 1024.99 1024.88 1024.37 1024.14 1023.76
1015.69 1016.16 1016.48 1016.75 1017.03 1017.34 1017.57 1017.81 1017.80 1017.90 1018.14 1018.27 1018.37 1018.52 1018.64 1018.72 1018.94 1019.21 1019.48 1019.90 1020.33 1020.84 1021.23 1021.63 1021.84 1022.11 1022.33 1022.63 1022.86 1023.18 1023.42 1023.64 1023.85 1024.22 1024.64 1025.02 1025.28 1025.32 1025.36 1025.34 1024.63 1024.56 1023.72
1015.03 1015.33 1015.42 1015.89 1016.41 1016.84 1017.43 1017.77 1018.08 1018.31 1018.40 1018.53 1018.63 1018.71 1018.84 1019.00 1019.18 1019.44 1019.80 1020.22 1020.61 1021.02 1021.40 1021.79 1022.08 1022.36 1022.60 1022.85 1022.89 1023.17 1023.53 1024.20 1024.63 1024.92 1025.14 1025.36 1025.54 1025.57 1025.77 1025.83 1025.50 1024.91 1024.07
1014.23 1014.27 1014.76 1015.34 1015.84 1016.30 1016.85 1017.21 1017.50 1017.77 1017.94 1018.13 1018.31 1018.52 1018.76 1018.85 1019.07 1019.43 1019.76 1020.19 1020.69 1021.26 1021.80 1022.22 1022.49 1022.84 1022.71 1022.97 1023.01 1023.35 1023.74 1024.05 1024.60 1024.89 1025.23 1025.37 1025.54 1025.68 1025.77 1025.61 1025.75 1025.44 1025.29
1013.33 1013.59 1014.10 1014.53 1014.89 1015.33 1015.90 1016.44 1016.65 1016.94 1017.41 1017.87 1018.13 1018.30 1018.43 1018.59 1018.85 1019.37 1019.88 1020.36 1020.91 1021.27 1021.76 1022.23 1022.38 1022.78 1022.96 1023.13 1023.51 1023.84 1024.27 1024.50 1024.81 1025.14 1025.30 1025.67 1025.74 1026.06 1026.01 1026.07 1026.18 1026.48 1025.77
1012.59 1012.86 1013.08 1013.51 1014.02 1014.68 1015.32 1015.85 1016.41 1016.84 1017.23 1017.68 1018.14 1018.37 1018.55 1018.68 1018.91 1019.31 1019.91 1020.29 1020.95 1021.81 1021.97 1022.30 1022.65 1022.95 1023.02 1023.09 1023.39 1024.10 1024.69 1025.36 1025.79 1025.64 1025.71 1025.81 1025.86 1026.40 1026.43 1026.59 1026.94 1026.93 1025.94
1012.51 1012.64 1013.00 1013.45 1013.80 1014.47 1015.17 1015.67 1016.22 1016.80 1017.24 1017.69 1017.98 1018.43 1018.76 1018.81 1018.99 1019.42 1019.77 1020.27 1020.90 1021.26 1022.12 1022.29 1022.63 1022.93 1023.11 1023.31 1023.34 1023.88 1024.70 1025.29 1026.22 1026.35 1026.08 1026.08 1026.11 1026.35 1026.78 1027.30 1027.38 1027.41 1026.91
1012.28 1012.42 1012.69 1012.91 1013.23 1013.71 1014.16 1014.85 1015.41 1015.91 1016.30 1016.79 1017.33 1017.86 1018.32 1018.71 1019.11 1019.42 1020.10 1020.28 1020.96 1021.06 1021.83 1022.21 1022.62 1023.08 1023.22 1023.64 1023.60 1023.90 1025.07 1025.64 1026.41 1026.84 1027.35 1027.19 1027.18 1027.06 1027.40 1027.45 1027.51 1028.00 1027.79
1011.91 1011.79 1012.05 1012.46 1012.74 1013.11 1013.67 1014.31 1014.90 1015.36 1016.02 1016.30 1016.76 1017.09 1017.74 1018.38 1018.89 1019.28 1019.79 1020.29 1020.64 1021.33 1021.49 1022.12 1022.36 1022.95 1023.24 1023.97 1024.03 1024.32 1024.98 1026.07 1026.77 1026.98 1027.42 1028.15 1027.90 1027.62 1028.19 1028.17 1028.12 1028.13 1028.08
1011.78 1011.82 1011.51 1011.83 1012.41 1013.09 1013.36 1014.09 1014.50 1014.82 1015.34 1016.06 1016.64 1017.16 1017.52 1017.94 1018.47 1019.21 1020.02 1020.92 1021.01 1021.39 1021.85 1022.25 1022.61 1022.88 1023.61 1024.23 1024.82 1025.03 1025.67 1026.74 1027.25 1027.28 1027.77 1028.48 1028.02 1028.23 1028.60 1028.69 1028.62 1028.65 1028.54
1011.81 1011.65 1011.81 1011.79 1011.89 1011.72 1012.38 1013.60 1014.57 1014.72 1014.66 1015.33 1016.06 1016.89 1017.69 1018.17 1018.34 1018.83 1019.57 1020.88 1021.48 1021.79 1022.29 1022.69 1022.83 1023.15 1024.17 1024.98 1025.25 1025.90 1026.75 1027.41 1027.44 1027.72 1028.33 1028.38 1028.43 1028.53 1028.88 1029.05 1029.12 1029.12 1028.58
1011.91 1012.32 1012.34 1012.02 1012.49 1011.97 1012.02 1012.51 1012.83 1013.72 1014.53 1014.51 1015.51 1016.09 1016.90 1017.69 1018.24 1018.75 1019.70 1020.41 1021.65 1022.29 1022.41 1023.09 1023.36 1024.16 1025.14 1025.85 1026.16 1026.93 1027.38 1027.71 1027.95 1028.22 1028.47 1028.71 1028.89 1029.11 1029.34 1029.40 1029.64 1029.61 1029.31
1012.20 1012.18 1012.61 1012.80 1012.57 1012.33 1012.44 1012.06 1012.38 1012.89 1013.42 1013.89 1015.03 1015.73 1016.03 1017.19 1017.69 1018.07 1019.09 1020.33 1021.89 1022.70 1023.38 1023.74 1024.19 1024.82 1025.48 1025.95 1026.54 1027.12 1027.72 1028.09 1028.33 1028.71 1029.03 1029.10 1029.52 1029.74 1029.83 1029.93 1030.09 1030.24 1030.16
1013.04 1012.55 1012.31 1012.47 1012.78 1012.85 1012.72 1012.79 1012.80 1012.99 1012.95 1013.49 1014.15 1014.93 1015.68 1016.43 1017.14 1017.74 1018.57 1019.26 1020.85 1021.76 1023.33 1023.86 1024.42 1024.70 1025.14 1025.86 1026.60 1027.21 1027.75 1028.20 1028.61 1029.08 1029.35 1029.52 1030.02 1030.42 1030.37 1030.38 1030.53 1030.63 1030.34
1013.25 1013.01 1012.70 1012.48 1012.52 1012.77 1012.88 1013.05 1013.23 1013.18 1013.13 1013.42 1013.89 1014.45 1015.40 1015.75 1016.35 1017.28 1018.04 1019.20 1020.35 1021.65 1023.69 1024.17 1023.94 1024.45 1025.24 1025.87 1026.44 1027.01 1027.65 1028.20 1028.81 1029.10 1029.50 1030.08 1030.44 1030.64 1030.91 1030.95 1030.85 1030.86 1030.48
1013.59 1013.44 1013.17 1012.91 1012.85 1012.96 1013.07 1013.20 1013.33 1013.30 1013.47 1013.83 1014.01 1014.74 1015.35 1015.77 1016.33 1016.78 1017.79 1018.98 1020.67 1022.19 1023.54 1024.17 1024.32 1024.74 1025.29 1025.90 1026.50 1027.01 1027.69 1028.34 1028.76 1029.26 1029.88 1030.30 1030.72 1031.20 1031.52 1031.36 1031.16 1030.93 1030.57
1014.19 1014.02 1013.81 1013.56 1013.39 1013.40 1013.52 1013.61 1013.71 1014.01 1014.50 1014.91 1015.09 1015.69 1016.13 1016.22 1016.80 1017.45 1018.13 1019.73 1021.26 1022.58 1023.59 1024.06 1024.37 1024.77 1025.41 1026.13 1026.71 1027.27 1027.84 1028.36 1028.85 1029.45 1029.94 1030.38 1030.79 1031.28 1031.49 1031.32 1031.02 1030.70 1030.66
1014.79 1014.78 1014.58 1014.34 1014.07 1013.97 1014.05 1014.24 1014.59 1014.97 1015.44 1015.87 1016.26 1016.85 1017.28 1017.36 1017.72 1018.64 1019.81 1020.63 1021.76 1022.75 1023.51 1024.01 1024.53 1024.98 1025.54 1026.14 1026.77 1027.31 1027.87 1028.45 1029.02 1029.59 1029.92 1030.21 1030.59 1030.86 1030.97 1030.90 1030.66 1030.68 1030.42
1015.55 1015.39 1015.32 1015.28 1015.05 1014.84 1014.86 1014.93 1015.18 1015.54 1016.12 1016.79 1017.33 1017.80 1018.04 1018.27 1018.71 1019.67 1020.67 1021.48 1022.23 1023.06 1023.63 1023.98 1024.53 1025.18 1025.69 1026.18 1026.71 1027.19 1027.64 1028.12 1028.69 1029.15 1029.63 1029.90 1029.99 1030.24 1029.95 1029.90 1029.76 1029.79 1029.80
1016.24 1016.00 1015.91 1015.80 1015.71 1015.75 1015.89 1015.87 1015.96 1016.39 1016.92 1017.46 1018.07 1018.36 1017.92 1019.14 1019.78 1020.34 1021.02 1021.77 1022.40 1022.86 1023.35 1023.98 1024.63 1025.11 1025.40 1025.86 1026.35 1026.74 1027.16 1027.65 1028.04 1028.58 1028.95 1029.01 1029.18 1029.25 1029.37 1029.56 1029.34 1029.19 1029.19
1016.84 1016.68 1016.51 1016.35 1016.33 1016.39 1016.58 1016.69 1016.80 1017.09 1017.52 1017.96 1018.35 1018.79 1019.19 1019.51 1020.09 1020.75 1021.43 1022.05 1022.60 1023.09 1023.73 1024.34 1024.69 1025.21 1025.42 1025.57 1025.81 1026.01 1026.40 1026.52 1026.83 1027.56 1027.77 1027.87 1028.25 1028.58 1028.56 1028.78 1028.73 1028.66 1028.30
1017.11 1017.11 1016.98 1017.00 1017.07 1017.04 1017.13 1017.29 1017.50 1017.84 1018.14 1018.52 1019.00 1019.38 1019.72 1020.21 1020.74 1021.17 1021.54 1022.00 1022.69 1023.40 1023.77 1024.00 1024.21 1024.44 1024.73 1024.96 1025.11 1025.35 1025.48 1025.48 1025.87 1026.11 1026.45 1026.77 1027.24 1027.18 1027.49 1027.68 1027.58 1027.45 1027.18
1017.24 1017.39 1017.38 1017.38 1017.48 1017.61 1017.70 1017.83 1018.09 1018.41 1018.77 1019.09 1019.54 1019.97 1020.24 1020.50 1020.86 1021.09 1021.51 1022.19 1022.82 1023.18 1023.21 1023.41 1023.57 1023.58 1023.76 1023.97 1024.19 1024.44 1024.48 1024.26 1024.41 1024.70 1025.51 1025.81 1026.09 1026.04 1026.32 1026.50 1026.42 1026.24 1025.93
1017.43 1017.61 1017.60 1017.62 1017.72 1017.81 1017.93 1018.07 1018.28 1018.62 1018.96 1019.33 1019.72 1020.00 1020.12 1020.38 1020.57 1020.92 1021.31 1021.78 1022.20 1022.46 1022.52 1022.56 1022.57 1022.63 1022.74 1022.85 1023.06 1023.22 1023.26 1023.30 1023.39 1023.52 1024.06 1024.49 1024.84 1024.95 1025.15 1025.22 1025.11 1025.01 1024.57
Wind_Speed
6 5 5 4 4 3 3 4 4 4 5 5 4 4 4 5 4 5 5 6 6 6 5 6 6 5 4 4 3 3 3 2 4 1 1 2 3 4 5 4 4 3 5
7 6 6 5 5 5 5 6 6 6 5 6 5 5 5 5 5 6 6 5 6 6 6 6 6 5 5 4 3 4 4 4 3 3 2 3 3 3 4 5 6 6 6
6 7 6 7 7 6 6 5 4 4 4 4 5 5 5 5 6 5 6 7 6 6 6 6 5 5 5 3 4 4 3 4 4 3 2 2 1 2 3 3 5 5 6
9 8 8 8 7 7 6 6 6 6 6 5 4 4 4 5 5 6 7 8 8 7 7 7 6 5 5 5 5 4 4 3 3 3 2 1 1 1 2 3 4 4 4
9 10 13 8 7 6 6 5 4 4 4 4 5 4 4 5 5 6 7 8 8 8 8 8 5 6 8 6 4 4 4 3 2 1 2 1 1 1 4 4 4 6 3
11 14 9 9 8 9 8 7 7 7 7 7 6 6 6 4 12 13 10 8 8 9 8 7 5 5 8 12 11 11 7 4 4 2 1 2 2 2 3 4 5 4 4
13 12 10 11 12 12 10 10 11 10 7 7 6 6 6 5 15 15 14 7 7 7 8 8 7 5 5 6 10 11 11 12 9 3 4 3 3 5 5 5 6 4 4
12 12 12 13 13 11 11 11 9 7 7 6 5 5 5 5 15 15 14 9 7 5 6 5 6 5 6 7 8 7 8 7 6 5 5 4 6 6 6 5 4 6 6
10 10 9 10 11 10 10 9 7 7 6 6 6 6 6 5 15 15 13 9 9 10 7 6 5 4 9 9 8 8 8 6 8 9 9 10 10 11 9 4 3 4 3
7 7 7 9 11 12 12 11 8 9 10 8 8 7 7 6 15 16 11 6 9 8 8 7 7 6 10 8 6 7 5 5 4 5 5 7 9 9 12 8 4 2 2
5 6 7 9 10 10 10 8 10 10 9 9 10 8 8 7 9 16 15 8 7 7 6 6 4 10 10 8 7 5 5 7 6 5 4 3 4 6 5 6 6 4 1
5 6 7 8 7 7 10 8 9 11 12 10 10 7 5 6 11 15 14 10 10 6 6 5 4 11 10 8 6 10 11 8 4 4 4 3 4 4 4 5 5 5 4
4 6 6 7 8 11 12 10 8 9 10 9 9 8 6 3 4 16 14 10 9 6 6 8 11 12 11 7 8 9 6 3 3 4 3 3 3 3 4 3 4 6 6
3 3 3 7 7 8 8 8 9 10 9 9 9 9 8 6 6 6 5 8 10 7 9 5 8 9 9 7 6 5 3 3 3 3 3 3 3 3 3 4 2 5 3
1 2 3 3 5 6 6 7 8 9 10 9 9 9 11 10 9 14 12 7 7 8 6 4 5 5 5 4 4 3 3 2 3 3 2 2 1 3 2 3 2 2 0
3 3 3 3 4 4 4 5 12 12 18 18 19 14 8 15 22 21 20 20 19 20 4 4 5 5 5 5 4 4 3 3 2 2 2 1 1 2 3 2 1 0 1
4 3 3 4 4 5 5 6 6 9 16 18 19 20 21 19 24 22 21 20 19 16 2 4 5 5 5 5 5 4 3 3 3 1 1 1 1 1 1 1 2 2 2
3 4 2 3 4 4 5 5 5 6 7 6 14 13 18 20 21 18 18 16 9 5 3 3 4 5 5 5 4 4 3 3 1 1 2 2 1 2 1 2 2 2 2
3 2 1 1 1 2 2 2 2 4 4 3 5 7 3 17 15 15 14 6 5 3 3 3 3 4 4 3 3 3 3 2 2 2 2 2 2 3 3 3 3 4 4
3 0 1 1 2 3 3 4 5 5 6 5 5 3 1 5 3 3 4 4 4 2 3 4 4 3 4 3 3 3 2 2 2 2 3 3 3 4 4 4 3 2 2
2 2 2 2 2 2 3 3 4 5 5 4 3 2 7 4 3 3 3 3 3 3 4 3 3 3 3 3 3 3 3 2 3 3 3 4 3 3 4 4 3 3 4
2 2 1 1 2 2 2 3 4 4 4 4 3 3 11 4 3 3 3 3 3 3 2 3 3 4 5 5 5 4 4 4 4 4 5 4 4 3 2 3 3 3 3
1 1 1 1 2 3 2 2 2 3 3 3 3 3 1 2 3 4 3 3 3 2 2 3 3 3 3 3 4 5 6 7 6 5 5 4 4 4 4 4 3 3 3
1 1 0 0 0 1 2 2 2 2 2 2 2 3 3 3 3 4 3 2 3 3 3 4 4 6 4 4 4 5 6 6 4 5 7 5 5 5 3 3 4 6 6
2 2 2 2 2 3 2 2 2 2 2 3 3 3 2 2 2 2 2 2 3 3 5 4 4 6 8 9 8 9 9 12 8 8 5 5 7 6 4 4 6 5 7
2 2 2 2 2 3 3 3 3 3 4 3 3 3 3 3 3 3 3 3 3 4 5 4 6 9 9 7 9 10 9 12 10 11 7 6 6 6 6 8 8 6 8
Wind_Direction
212 207 205 211 207 189 184 177 174 164 164 160 151 139 134 133 134 123 112 111 111 107 98 104 95 85 80 69 60 64 69 67 106 105 104 67 77 50 11 352 347 348 349
204 203 208 198 194 198 200 197 187 181 177 169 166 160 157 158 150 140 132 123 119 117 114 108 110 107 83 73 66 71 67 36 102 113 56 28 42 36 355 345 352 356 333
202 202 203 202 199 209 210 204 199 183 181 175 169 171 169 161 142 133 132 129 119 114 110 105 103 104 96 87 73 73 57 70 59 94 103 61 15 35 334 334 334 340 339
200 201 207 207 199 202 200 201 195 189 184 187 182 170 163 152 145 143 135 127 120 111 107 99 98 101 117 119 105 91 85 83 81 96 113 100 37 330 321 332 343 336 334
201 203 216 195 188 185 195 197 199 195 185 170 163 164 159 155 156 143 139 134 127 119 113 110 97 113 112 113 110 97 95 78 68 74 74 142 94 10 4 341 337 324 322
209 221 206 188 189 194 190 185 180 185 183 176 177 172 171 173 171 163 147 142 137 134 128 118 105 79 108 103 97 96 90 113 112 154 156 155 93 20 2 13 358 11 339
215 215 203 197 197 195 187 185 193 188 172 181 175 168 168 165 170 165 153 137 140 142 140 142 136 129 109 99 102 93 75 72 77 71 112 68 55 22 6 15 19 335 279
219 217 208 200 202 190 187 195 191 179 178 169 164 163 157 173 173 165 153 133 125 122 131 131 131 133 140 139 133 128 102 83 56 68 71 64 64 35 33 39 3 314 295
231 228 211 203 197 185 191 183 168 162 165 163 162 159 169 180 175 171 157 148 146 137 138 131 138 132 137 149 144 142 130 96 68 48 62 65 62 53 44 55 29 29 321
232 226 200 193 195 194 186 178 177 178 175 168 163 165 162 165 181 180 170 159 161 147 149 147 152 149 131 140 136 137 145 101 76 57 45 51 52 45 40 39 34 63 326
234 200 183 191 195 189 176 175 170 173 168 171 166 156 156 163 186 188 179 181 170 162 152 147 141 152 126 132 117 113 122 115 84 85 73 62 57 51 33 27 24 18 15
207 202 182 175 181 178 171 170 176 171 171 172 164 155 143 154 174 191 192 196 178 160 153 143 156 148 133 116 114 112 108 98 94 85 87 81 61 47 17 10 19 4 335
212 196 193 182 183 174 172 171 180 183 177 174 172 168 157 142 152 175 166 176 167 141 130 152 157 141 122 108 108 100 90 87 82 77 76 58 38 23 5 359 4 346 323
216 216 205 190 195 183 178 180 179 183 188 177 178 171 156 149 143 129 131 131 146 132 135 110 118 117 124 115 92 87 74 62 72 86 74 47 8 6 3 11 356 357 356
194 164 206 221 200 182 195 184 188 192 187 175 180 175 161 171 168 149 136 121 125 137 104 79 112 132 142 132 119 122 120 115 102 81 78 59 356 340 348 14 10 349 77
244 202 186 172 188 195 175 184 208 189 189 189 180 169 174 175 169 165 164 167 170 156 137 161 175 167 162 159 163 162 150 134 115 123 108 100 334 310 321 353 337 245 263
264 236 205 192 180 175 181 178 174 194 196 184 181 180 177 177 180 180 181 180 172 142 150 179 166 163 164 165 164 164 163 153 139 134 135 180 214 272 332 286 302 306 295
290 246 228 200 187 186 184 184 182 183 171 176 178 173 179 177 178 176 179 152 123 102 139 182 175 166 163 164 164 161 163 162 167 176 200 178 211 213 247 251 246 225 258
342 333 349 48 75 108 129 129 130 128 107 96 122 116 239 167 158 177 145 121 133 137 169 188 176 162 158 158 164 163 173 184 180 170 203 193 203 180 243 241 251 267 274
12 25 45 69 108 113 122 121 111 116 123 124 116 106 45 68 118 66 76 112 128 160 178 187 176 163 165 164 166 168 153 165 182 200 218 214 212 204 227 230 204 239 237
18 24 46 33 52 84 109 122 118 125 137 128 101 131 150 121 108 113 138 141 150 171 184 178 166 174 174 166 160 173 188 211 201 206 218 230 199 216 214 228 224 213 230
360 24 53 97 74 71 75 91 103 111 121 130 131 204 201 130 154 171 170 171 170 172 158 161 179 186 185 184 182 182 202 221 202 207 218 217 212 217 203 227 221 226 230
26 59 57 69 82 113 107 101 116 127 142 146 152 173 188 141 164 179 188 177 166 168 166 177 184 203 201 196 185 183 198 221 220 188 200 197 211 222 194 227 220 234 216
326 301 92 99 130 159 165 166 149 159 165 164 178 186 186 179 187 194 195 180 178 192 188 193 199 205 206 210 203 208 222 230 194 198 190 186 222 215 189 212 218 236 251
208 224 223 206 205 210 188 180 174 161 171 170 185 199 195 174 185 207 209 199 199 192 218 211 210 219 227 225 221 219 221 238 219 187 187 184 215 212 198 211 236 237 245
235 232 220 199 205 199 194 189 192 190 201 207 209 208 201 205 211 201 206 200 215 224 227 218 224 231 235 236 235 236 228 231 227 218 184 187 205 228 214 225 232 236 252